Wind_Speed
33 34 35 37 38 38 38 39 40 40 40 39 36 35 34 32 33 33 30 28 28 28 28 27 23 21 19 19 20 20 19 20 20 21 21 21 23 23 23 24 25 25 24 25
31 35 38 39 38 38 40 41 43 44 44 45 43 41 37 33 32 32 31 29 28 27 29 29 24 21 20 19 20 20 20 21 21 22 22 22 24 24 24 25 25 26 27 27
30 33 36 37 38 39 40 41 41 40 39 41 42 37 33 30 29 30 30 29 28 29 30 31 25 22 22 20 20 20 20 21 22 22 22 23 23 24 25 26 27 28 29 29
25 31 32 33 34 36 37 38 38 36 35 34 33 34 28 27 27 28 28 29 28 29 30 32 27 24 23 22 21 20 21 21 21 21 22 23 23 25 27 28 29 30 31 30
24 29 32 32 33 36 36 35 34 33 32 31 29 31 27 26 26 25 25 28 28 27 29 31 28 25 24 23 21 20 20 20 20 22 23 24 26 28 30 30 30 31 31 30
19 24 29 30 31 34 35 34 33 31 31 31 29 29 27 26 25 24 23 24 28 28 28 30 28 26 24 22 20 20 20 21 22 23 24 26 27 29 29 30 30 30 29 28
15 18 25 28 27 27 30 30 30 29 28 27 26 25 24 24 23 22 21 23 23 25 26 26 24 23 21 19 18 19 20 22 23 25 26 27 28 28 28 28 28 27 26 25
21 18 24 27 24 23 24 26 26 28 27 24 21 19 17 20 22 22 21 22 22 21 20 19 19 19 18 18 19 20 21 22 24 25 26 26 26 26 26 25 25 24 22 21
25 23 25 28 27 25 23 22 23 27 28 27 25 20 18 18 19 21 22 22 22 20 17 16 16 17 17 18 20 21 22 22 23 24 24 25 24 23 23 22 22 21 19 18
30 30 26 28 29 28 26 23 22 24 25 24 22 21 21 20 18 16 15 17 18 17 16 17 18 17 17 19 21 23 22 21 21 22 23 22 22 22 21 20 19 18 17 17
33 35 29 24 23 25 23 23 25 25 25 22 18 18 20 20 18 14 13 15 17 17 17 17 18 16 17 19 20 21 21 21 21 21 21 22 23 23 21 19 17 16 16 16
37 37 31 21 22 24 23 21 20 22 23 24 23 20 20 21 16 13 15 17 18 18 19 19 20 20 19 20 20 21 21 21 21 21 22 22 23 24 23 20 18 16 16 16
40 37 29 20 20 22 23 24 25 26 25 24 25 26 26 26 27 25 22 19 16 16 17 19 20 19 20 21 20 20 21 22 22 22 24 25 26 25 24 21 19 18 18 18
39 32 25 20 18 18 15 15 19 21 22 22 24 26 27 28 28 28 24 17 17 18 19 20 20 19 19 20 19 20 23 23 23 24 26 27 27 25 23 21 20 20 20 19
36 29 21 17 14 14 11 10 10 13 16 17 20 22 22 21 21 22 23 22 20 21 23 23 22 20 20 20 21 22 24 26 25 25 26 26 25 23 22 21 21 21 21 20
33 26 19 13 11 9 10 10 9 10 11 12 12 13 14 15 17 18 19 20 21 23 23 23 22 20 20 21 22 24 25 26 26 25 25 24 23 24 23 22 22 22 22 22
32 24 16 8 5 8 10 9 9 9 10 10 8 7 6 7 9 10 11 13 14 16 16 18 18 18 19 21 22 22 23 23 23 22 22 21 22 22 22 22 21 22 22 22
31 21 12 3 5 6 9 8 9 7 6 4 3 2 1 0 1 2 3 4 5 6 8 10 11 13 14 15 15 16 17 18 19 20 20 20 21 22 22 23 22 23 23 23
31 19 8 2 6 4 8 10 10 7 5 3 2 1 2 1 3 4 3 2 3 2 1 2 3 5 7 10 12 14 15 16 18 19 20 21 22 23 23 23 23 23 23 23
29 17 8 3 7 7 8 8 8 6 5 5 3 2 3 3 5 6 5 5 4 4 3 3 4 7 9 11 13 15 16 17 18 20 21 22 23 23 23 23 22 22 21 20
30 17 8 3 5 5 6 4 6 7 5 5 4 2 3 4 5 5 5 5 4 4 4 6 8 10 12 13 14 15 16 17 18 20 21 22 22 21 21 20 19 18 18 17
32 18 9 4 5 5 5 4 5 6 4 3 2 3 4 4 5 5 5 5 5 5 7 9 11 12 12 13 13 14 15 17 18 20 21 21 20 19 18 17 16 15 15 16
33 21 10 4 3 5 3 3 5 5 7 4 1 3 4 4 5 4 4 5 6 7 9 10 11 11 11 12 12 14 16 17 19 20 20 20 19 18 16 15 14 14 16 18
35 23 12 4 2 4 4 3 5 6 8 6 1 2 4 5 4 4 4 6 7 9 9 9 10 10 10 12 13 14 16 17 17 18 19 19 18 17 15 14 14 15 16 19
38 25 14 6 2 4 4 3 4 7 8 6 2 1 4 5 4 3 4 6 8 9 10 10 10 10 11 12 13 15 16 17 18 19 21 20 18 16 14 13 13 15 17 19
42 29 17 8 2 4 4 4 3 6 7 5 2 3 4 3 3 3 5 7 9 10 10 10 10 11 12 13 14 16 17 18 20 21 21 20 17 14 13 13 13 15 16 17
Wind_Direction
243 246 248 250 253 257 259 260 260 260 260 259 257 262 267 269 271 272 272 273 275 278 280 279 281 281 280 281 285 291 295 295 297 302 305 304 303 303 300 297 296 294 292 291
250 251 252 255 258 261 263 264 264 263 262 262 262 264 266 265 267 268 270 270 270 269 271 275 278 277 278 279 283 288 293 295 297 301 303 304 305 303 300 298 295 292 289 288
258 259 260 261 263 265 268 271 272 272 269 266 265 264 265 263 264 266 268 266 263 259 264 270 271 273 274 275 279 285 289 293 297 300 303 304 302 301 300 298 296 292 289 287
264 264 265 265 265 265 267 270 274 276 275 273 268 264 260 262 263 265 265 262 257 254 255 263 266 268 271 274 278 282 286 292 296 300 302 303 303 303 302 301 297 293 291 288
271 273 273 270 268 268 268 270 273 275 275 275 276 274 266 262 259 255 253 256 255 251 251 257 261 264 267 270 274 279 286 292 297 302 305 306 305 305 304 302 298 293 290 287
288 284 282 278 274 272 271 270 269 271 273 274 275 277 275 264 253 243 242 249 254 252 250 252 255 258 261 264 270 280 289 295 301 304 306 306 305 304 302 299 297 295 291 285
300 294 289 286 282 276 275 273 271 270 271 274 273 272 272 268 258 253 258 257 253 252 250 252 254 256 258 262 271 283 292 298 302 305 305 304 304 303 300 297 297 296 294 287
307 283 274 278 279 275 274 271 269 268 267 268 271 270 272 275 277 279 280 278 265 256 254 254 255 257 259 267 277 286 292 297 300 301 301 302 303 303 300 298 296 295 293 287
316 295 274 269 269 272 273 265 261 264 263 265 268 275 278 278 280 280 279 280 277 271 265 261 261 261 266 274 282 288 292 294 296 297 299 302 305 306 303 299 297 294 291 285
318 308 292 274 265 262 259 255 250 255 259 261 259 256 256 260 259 260 267 276 273 265 257 255 256 255 267 277 284 289 291 293 295 296 297 300 306 310 308 303 299 295 289 284
320 311 304 284 266 258 250 246 243 245 248 252 248 248 249 248 234 216 221 245 255 255 261 264 269 273 276 279 283 287 290 293 296 295 296 300 305 310 310 304 300 296 289 282
322 314 308 289 264 256 247 239 240 244 246 248 249 250 253 243 235 231 241 241 243 250 257 266 274 279 281 281 282 284 288 294 296 295 297 302 305 306 305 301 297 294 287 279
324 317 308 290 265 256 250 244 241 245 248 249 253 252 253 254 256 255 252 240 239 249 259 267 273 278 280 280 283 285 291 294 295 295 299 303 304 303 300 294 293 291 287 280
326 320 308 295 280 271 262 243 238 243 249 251 254 254 252 251 254 255 257 257 261 267 268 273 276 275 276 278 283 286 290 294 294 296 299 303 302 301 297 293 291 290 288 282
331 323 311 290 283 278 279 265 247 247 251 253 253 254 255 259 262 264 270 273 271 269 268 269 270 271 271 273 277 282 286 289 293 295 298 301 301 300 298 296 293 290 288 285
338 331 321 296 267 254 258 256 258 253 255 258 257 263 264 270 274 273 270 267 264 264 264 263 261 263 266 269 274 279 283 287 291 294 297 299 301 300 297 295 292 290 288 287
347 341 333 316 241 215 240 247 258 254 249 252 256 262 265 278 276 274 268 261 258 255 253 253 254 259 265 271 276 280 283 286 291 295 297 298 301 299 297 295 292 289 287 287
349 348 346 351 164 212 225 221 245 246 234 222 198 151 46 10 307 311 259 237 232 234 244 251 257 265 272 278 283 287 289 292 294 296 298 300 300 297 296 294 291 288 286 285
352 348 344 204 187 235 232 232 232 221 206 198 174 51 58 123 20 46 84 122 124 125 192 268 283 292 297 299 300 300 300 298 297 298 301 302 301 298 296 294 291 289 287 284
355 350 333 256 214 234 240 249 222 204 190 184 170 122 44 64 38 49 70 87 91 78 50 1 331 319 314 311 309 308 307 305 303 302 302 302 302 300 298 296 293 290 287 283
1 358 346 283 239 246 248 247 197 194 192 177 158 93 50 45 38 44 60 68 60 36 5 341 329 323 318 315 314 313 312 310 307 307 307 307 306 303 301 297 294 291 286 283
5 3 352 301 248 236 241 236 201 201 195 180 137 67 55 42 31 33 42 41 26 5 347 334 326 320 317 317 317 317 317 316 315 316 315 313 309 306 303 301 297 293 290 288
7 7 3 341 250 219 229 236 219 211 204 209 108 68 46 39 27 25 26 22 8 354 343 334 327 323 323 323 322 321 321 322 322 322 321 318 314 311 308 305 302 300 298 297
9 11 16 17 219 214 225 250 228 211 200 204 208 47 44 43 38 27 14 7 358 350 342 334 328 327 327 326 324 323 323 324 324 326 328 325 321 316 312 308 306 307 308 308
10 14 23 38 156 204 220 239 226 208 201 210 234 58 61 50 34 8 355 353 350 344 337 331 328 327 327 327 328 328 328 327 327 328 330 328 322 318 314 311 311 314 316 317
11 16 24 38 126 195 217 227 239 206 196 198 182 116 79 50 13 347 344 347 345 343 339 335 332 330 330 331 333 334 332 330 328 327 327 326 322 316 312 312 314 319 323 327
Height
5844 5846 5847 5847 5847 5849 5850 5850 5851 5851 5849 5848 5847 5848 5850 5851 5852 5852 5853 5855 5854 5853 5852 5852 5853 5853 5853 5853 5852 5851 5850 5849 5848 5848 5847 5846 5845 5845 5844 5843 5842 5841 5841 5841
5840 5840 5839 5840 5842 5842 5841 5841 5841 5842 5842 5840 5839 5840 5842 5844 5845 5845 5846 5847 5848 5848 5846 5846 5849 5849 5849 5849 5848 5847 5846 5845 5844 5844 5843 5842 5841 5840 5839 5838 5837 5836 5835 5835
5833 5833 5833 5835 5835 5834 5834 5833 5832 5832 5833 5832 5831 5832 5834 5836 5836 5838 5839 5840 5842 5842 5840 5840 5843 5844 5844 5844 5843 5842 5842 5841 5840 5839 5838 5837 5836 5835 5833 5832 5831 5830 5829 5828
5828 5826 5827 5827 5827 5826 5825 5824 5824 5824 5824 5824 5824 5823 5827 5828 5829 5830 5831 5832 5834 5835 5834 5833 5836 5838 5838 5838 5837 5837 5837 5836 5836 5835 5834 5832 5831 5829 5828 5826 5824 5823 5821 5821
5823 5821 5820 5820 5819 5817 5817 5817 5817 5816 5816 5818 5817 5815 5820 5819 5820 5822 5823 5824 5825 5827 5827 5827 5829 5831 5831 5832 5832 5832 5832 5832 5831 5830 5828 5827 5825 5823 5821 5819 5818 5816 5814 5813
5818 5816 5813 5812 5811 5809 5808 5809 5809 5809 5809 5811 5811 5810 5812 5811 5812 5813 5814 5816 5817 5819 5820 5820 5822 5824 5825 5826 5826 5827 5827 5826 5825 5824 5823 5821 5819 5817 5815 5813 5811 5809 5807 5806
5814 5812 5808 5804 5804 5803 5802 5802 5802 5802 5802 5804 5803 5804 5805 5805 5806 5807 5808 5809 5810 5811 5812 5813 5816 5817 5819 5820 5821 5822 5821 5821 5820 5818 5816 5815 5813 5811 5809 5807 5805 5802 5800 5799
5809 5808 5803 5799 5797 5796 5796 5796 5797 5796 5797 5797 5797 5798 5799 5799 5800 5802 5803 5804 5804 5805 5806 5808 5811 5812 5814 5815 5816 5816 5816 5815 5814 5812 5811 5809 5807 5805 5803 5801 5799 5796 5795 5793
5803 5800 5796 5792 5790 5790 5789 5789 5789 5789 5789 5790 5792 5793 5793 5794 5795 5797 5798 5799 5800 5801 5801 5803 5805 5807 5809 5810 5811 5811 5811 5810 5808 5807 5805 5803 5802 5800 5797 5795 5793 5791 5789 5788
5795 5789 5788 5784 5782 5781 5782 5782 5782 5783 5784 5785 5788 5789 5789 5788 5789 5790 5791 5792 5793 5793 5794 5796 5797 5800 5803 5804 5805 5805 5805 5804 5803 5801 5800 5798 5797 5795 5792 5790 5788 5786 5785 5784
5786 5779 5776 5774 5772 5771 5773 5773 5774 5775 5777 5779 5781 5785 5782 5782 5782 5780 5783 5786 5788 5789 5792 5793 5792 5793 5797 5798 5799 5799 5799 5798 5798 5796 5795 5794 5792 5789 5787 5785 5784 5782 5781 5781
5777 5770 5765 5764 5763 5762 5762 5763 5765 5769 5771 5773 5775 5780 5774 5775 5775 5775 5777 5779 5782 5785 5787 5789 5790 5791 5792 5793 5794 5794 5794 5793 5793 5791 5790 5788 5786 5784 5783 5781 5780 5778 5777 5777
5768 5761 5757 5756 5757 5756 5755 5756 5759 5763 5765 5768 5770 5773 5769 5770 5771 5773 5774 5775 5777 5780 5783 5785 5786 5787 5787 5788 5788 5788 5789 5788 5787 5785 5784 5783 5781 5779 5777 5776 5775 5774 5773 5773
5760 5754 5750 5749 5748 5747 5748 5750 5754 5757 5759 5762 5763 5764 5764 5767 5767 5769 5770 5771 5774 5777 5778 5780 5781 5782 5782 5783 5783 5783 5783 5782 5781 5780 5778 5776 5775 5773 5772 5771 5770 5769 5768 5767
5752 5747 5742 5741 5742 5743 5745 5747 5750 5752 5754 5756 5757 5757 5760 5761 5762 5764 5766 5768 5770 5771 5772 5774 5775 5776 5777 5778 5778 5778 5777 5776 5775 5774 5772 5770 5769 5768 5767 5765 5764 5763 5762 5762
5746 5740 5736 5736 5737 5740 5742 5744 5747 5748 5750 5751 5752 5754 5755 5757 5759 5760 5761 5762 5763 5765 5766 5768 5769 5770 5771 5772 5773 5772 5771 5770 5769 5768 5767 5765 5764 5762 5761 5760 5759 5757 5756 5755
5742 5736 5733 5732 5733 5736 5738 5741 5743 5746 5747 5748 5750 5752 5753 5755 5755 5756 5756 5756 5757 5759 5761 5762 5763 5765 5766 5767 5767 5766 5766 5764 5763 5763 5761 5760 5759 5757 5755 5754 5753 5751 5750 5749
5740 5735 5732 5731 5734 5736 5739 5740 5742 5744 5745 5747 5749 5750 5751 5752 5751 5752 5752 5753 5754 5756 5757 5759 5761 5762 5762 5763 5762 5762 5761 5760 5759 5758 5756 5755 5753 5752 5750 5748 5746 5745 5743 5742
5737 5733 5731 5731 5732 5734 5736 5737 5739 5742 5745 5747 5749 5750 5751 5751 5751 5752 5752 5752 5754 5755 5757 5758 5759 5760 5760 5760 5760 5759 5758 5757 5755 5753 5752 5750 5748 5746 5744 5742 5739 5738 5736 5735
5736 5731 5730 5730 5731 5733 5735 5736 5739 5743 5745 5747 5748 5750 5752 5752 5753 5754 5753 5754 5755 5756 5757 5757 5758 5758 5758 5758 5757 5755 5754 5753 5751 5749 5747 5745 5743 5740 5737 5735 5733 5731 5730 5729
5736 5731 5730 5730 5731 5733 5735 5736 5740 5744 5747 5748 5750 5752 5753 5754 5755 5755 5755 5755 5755 5756 5756 5757 5756 5756 5755 5754 5753 5751 5750 5749 5747 5745 5743 5740 5737 5735 5732 5729 5727 5726 5724 5723
5736 5731 5730 5730 5732 5736 5736 5738 5742 5744 5746 5749 5751 5753 5754 5755 5756 5756 5756 5756 5756 5756 5756 5755 5754 5753 5752 5751 5750 5748 5747 5745 5743 5740 5738 5735 5732 5729 5727 5725 5723 5721 5720 5719
5737 5733 5730 5731 5734 5735 5737 5739 5742 5744 5747 5750 5752 5754 5755 5756 5756 5757 5757 5757 5757 5757 5755 5754 5753 5751 5750 5749 5747 5745 5744 5741 5739 5737 5734 5731 5728 5725 5723 5721 5719 5717 5715 5713
5740 5734 5733 5732 5734 5737 5739 5741 5743 5745 5748 5751 5753 5755 5756 5757 5757 5758 5759 5758 5758 5756 5755 5753 5752 5750 5749 5747 5745 5743 5741 5738 5736 5733 5730 5727 5724 5721 5719 5717 5715 5713 5710 5708
5744 5738 5735 5734 5736 5738 5741 5743 5744 5746 5749 5752 5754 5756 5757 5758 5759 5759 5759 5759 5758 5756 5755 5753 5751 5749 5747 5745 5743 5740 5737 5735 5733 5730 5727 5724 5720 5718 5715 5713 5711 5709 5706 5703
5747 5741 5738 5737 5738 5740 5742 5744 5745 5747 5750 5753 5755 5757 5758 5759 5760 5760 5760 5759 5758 5756 5754 5752 5750 5748 5746 5743 5741 5738 5735 5732 5730 5727 5723 5720 5717 5715 5712 5710 5708 5705 5702 5698